Location: Tucson
(32.2217°N, 110.9265°W)
Time: 19:44:11
(UTC-07:00)

A-11 Canister half - Pass Details

Date: 30 October 2021
Orbit: 1516 x 1684 km, 47.2° (Epoch: 28 November)

Event Time Altitude Azimuth Distance (km) Brightness Sun altitude
Rises 21:31:21 0° 305° (NW) 4,896 12.2 -50.2°
Reaches altitude 10° 21:34:45 10° 311° (NW) 3,888 11.5 -50.9°
Enters shadow 21:39:10 28° 327° (NNW) 2,705 10.4 -51.7°
